Overview Statistics Trail Chart Weather Telemetry Raw packets
 

This is the latest recevied weather packets stored in our database for station/object VU3OPZ-13. If no packets are shown the sender has not sent any weather packets the latest 10 day(s).

<< 8 9 10 11 12 13 14 >>
Time Temp. Humidity Pressure Rain* Wind** Luminosity Snow
1787939455 22.22° C 85% 1012 hPa 0 mm - - -
1787937651 22.22° C 84% 1013 hPa 0 mm - - -
1787935847 22.22° C 84% 1013 hPa 0 mm - - -
1787934039 22.78° C 82% 1012 hPa 0 mm - - -
1787932235 22.78° C 83% 1012 hPa 0 mm - - -
1787930431 22.78° C 82% 1012 hPa 0 mm - - -
1787928626 23.33° C 82% 1012 hPa 0 mm - - -
1787926821 23.33° C 80% 1011 hPa 0 mm - - -
1787925017 23.33° C 80% 1011 hPa 0 mm - - -
1787923212 25° C 73% 1010 hPa 0 mm - - -
1787921408 25° C 72% 1010 hPa 0 mm - - -
1787919604 26.67° C 65% 1009 hPa 0 mm - - -
1787917800 26.67° C 64% 1009 hPa 0 mm - - -
1787914504 27.78° C 60% 1009 hPa 0 mm - - -
1787912700 28.33° C 57% 1008 hPa 0 mm - - -
1787910895 28.33° C 57% 1008 hPa 0 mm - - -
1787909091 28.89° C 56% 1009 hPa 0 mm - - -
1787907287 28.89° C 56% 1009 hPa 0 mm - - -
1787905481 28.89° C 55% 1009 hPa 0 mm - - -
1787903677 28.89° C 54% 1009 hPa 0 mm - - -
1787901871 28.89° C 54% 1010 hPa 0 mm - - -
1787900067 28.89° C 54% 1010 hPa 0 mm - - -
1787898262 28.33° C 55% 1011 hPa 0 mm - - -
1787896458 28.33° C 55% 1011 hPa 0 mm - - -
1787894654 27.78° C 60% 1012 hPa 0 mm - - -

* Rain latest hour (hover to see other rain measurements)
** Current wind speed in m/s (hover to see current wind gust speed)